Spokane International Airport
KGEG : now visible

Airfield :











YOU CAN JOIN US ON...

 
LOGIN :

Register | Disclaimer

   EN    FR    IT 

 









Legend :    VFR   Marginal VFR   IFR   Intensive IFR   Very Intensive IFR
Visi :
Ceiling :
>= 8 km
>= 3000ft
5 to 8 km
1000 to 3000 ft
1500m to 5 km
500 to 1000 ft
800 to 1500m
200 to 500 ft
< 800m
< 200 ft
Symbols :   Thunderstorms  Fog  Heavy snow  Heavy precipitations  Wind > 20 kt






- Airport Elevation : 2376 ft
- IATA code : GEG


KGEG - Spokane International

CURRENT METAR :
  • 201953Z 06011G16KT 10SM SCT060 SCT200 26/09 A3008 RMK AO2 SLP169 T02560089

EXPIRED METARs :
  • 201853Z VRB05G15KT 10SM FEW060 FEW200 24/09 A3008 RMK AO2 SLP170 T02390089
  • 201753Z VRB05G18KT 10SM FEW060 FEW200 23/09 A3007 RMK AO2 SLP166 T02330089 10233 20172 51016

TAF KGEG
Valid from the 20 at 18:00 until the 21 at 18:00 UTC


201732Z 2018/2118 06010KT P6SM FEW070
FM210400 06005KT P6SM SKC
KZSE FIR / North America



MET'MAP, your aeronautical weather chart ! - Copyright ORBIFLY December 2007 - Disclaimer

ORBIFLY MET'MAP TEAM :

Programming & Development : Alexandra Zaïnal
Concept & original design : Baudouin d'Aumeries
Assistance for programming : Marc-Olivier Méhu
Technical & hardware support : Manuel Goepfert

Contact : metmap@orbifly.com




SOURCES & CREDITS :

   NOAA       Earth
Advisory